Location: Ravensburg
(48.5621°N, 13.4088°E)
Time: 00:06:34
(UTC+02:00)

OTV 5 (USA 277) - Visible Passes

Search period start: 23 April 2018 00:00
Search period end: 03 May 2018 00:00
Orbit: 310 x 323 km, 54.5° (Epoch: 21 April)

Date Brightness Start Highest point End Pass type
(mag) Time Alt. Az. Time Alt. Az. Time Alt. Az.
23 Apr ? 21:21:46 10° W 21:24:14 29° NNW 21:26:41 10° NE visible
23 Apr ? 22:56:49 10° NW 22:58:47 22° N 22:58:47 22° N visible
24 Apr ? 21:36:34 10° WNW 21:38:52 23° N 21:41:08 10° NE visible
24 Apr ? 23:11:19 10° NW 23:12:42 21° NNW 23:12:42 21° NNW visible
25 Apr ? 21:51:18 10° NW 21:53:32 22° N 21:55:41 10° NE visible
25 Apr ? 23:25:42 10° NW 23:26:33 17° NW 23:26:33 17° NW visible
26 Apr ? 22:05:52 10° NW 22:08:11 24° N 22:09:30 17° NE visible
26 Apr ? 23:40:06 10° WNW 23:40:22 12° WNW 23:40:22 12° WNW visible
27 Apr ? 20:45:44 10° WNW 20:47:59 22° N 20:50:13 10° NE visible
27 Apr ? 22:20:18 10° NW 22:22:49 32° NNE 22:23:18 30° NE visible
28 Apr ? 21:00:23 10° NW 21:02:39 23° N 21:04:55 10° ENE visible
28 Apr ? 22:34:41 10° NW 22:37:05 51° N 22:37:05 51° N visible
29 Apr ? 21:14:53 10° NW 21:17:18 27° NNE 21:19:42 10° ENE visible
29 Apr ? 22:49:06 10° WNW 22:50:52 35° WNW 22:50:52 35° WNW visible
30 Apr ? 21:29:17 10° NW 21:31:54 40° NNE 21:33:49 15° E visible
30 Apr ? 23:03:43 10° WNW 23:04:41 18° W 23:04:41 18° W visible
01 May ? 21:43:40 10° WNW 21:46:24 78° NNE 21:47:39 28° ESE visible
02 May ? 21:58:10 10° WNW 22:00:47 45° SW 22:01:30 34° S visible
